Wind_Speed
11 11 11 12 11 11 12 13 15 16 18 21 24 25 28 30 32 34 37 40 44 48 49 46 45 37 31 22 17 14 10 7 7 8 9 15 19 27 38 43 49 51 55 58 60 64 60
12 11 11 11 11 12 13 13 14 16 18 21 24 26 29 31 33 35 37 40 43 47 49 46 44 37 31 25 17 13 11 11 9 7 7 14 18 23 31 40 47 50 52 55 57 53 65
12 11 11 11 11 11 12 13 14 16 19 21 23 27 30 32 33 35 37 40 42 45 49 47 43 36 30 24 22 14 9 10 9 9 5 10 16 21 29 37 42 48 50 52 57 58 62
10 10 9 10 10 11 12 13 14 16 19 21 23 26 29 31 33 35 38 40 42 44 47 47 43 38 32 26 24 17 10 10 10 9 6 3 12 17 25 34 40 44 46 50 53 57 55
8 8 8 8 9 10 11 12 14 16 18 21 24 26 28 30 32 35 37 39 40 41 44 46 44 40 34 30 27 18 10 11 11 9 8 4 7 14 19 28 37 42 42 46 49 53 57
8 6 6 7 8 9 11 12 13 15 19 23 25 26 28 29 30 33 35 36 38 39 41 42 45 43 35 29 25 20 13 11 11 11 9 7 5 11 17 21 28 35 39 43 47 49 53
9 6 5 7 8 9 10 10 12 14 18 21 24 25 27 29 32 33 34 35 35 35 38 40 42 43 40 33 27 21 18 15 13 12 11 10 5 8 15 20 23 28 32 37 42 46 49
13 8 7 7 9 9 9 10 12 14 15 18 22 24 27 30 33 35 35 35 33 34 35 37 38 41 41 37 30 24 21 17 15 13 9 8 8 3 12 19 22 25 27 31 37 44 47
16 13 10 10 9 11 11 11 12 14 16 17 19 23 25 29 32 34 36 37 36 36 33 33 35 36 38 38 33 29 23 19 17 14 13 12 12 3 5 12 19 24 27 30 32 40 47
19 18 15 14 12 13 12 12 13 15 17 19 20 21 23 27 30 33 37 37 39 36 36 35 34 33 33 34 34 31 28 21 19 16 15 12 11 7 3 6 12 17 24 29 32 34 41
23 22 20 18 16 15 15 14 15 15 18 21 22 22 23 24 27 29 33 36 40 37 40 38 36 32 30 30 31 31 27 27 21 17 16 14 11 9 6 5 6 12 18 26 32 37 37
26 25 24 22 20 19 17 17 17 18 19 21 22 22 22 23 25 27 29 34 35 40 40 41 38 35 32 28 27 27 28 25 24 22 16 13 11 8 6 6 7 9 14 21 28 34 40
28 26 27 26 25 22 21 19 20 19 20 21 23 23 23 23 23 24 27 30 33 38 38 41 41 38 34 32 27 24 23 24 22 20 20 16 12 10 8 6 6 8 10 16 23 29 33
28 29 28 29 28 25 24 22 20 22 21 22 23 23 23 24 24 23 25 29 30 33 34 35 39 40 39 32 32 29 24 22 21 21 19 17 15 14 10 10 8 6 7 12 17 21 27
31 33 30 30 30 28 28 25 24 22 24 23 23 25 24 23 24 24 26 28 29 32 33 33 33 35 38 39 36 31 28 24 20 18 19 19 16 13 13 11 10 9 8 9 14 17 22
35 34 31 32 33 31 31 28 27 26 25 26 25 26 26 25 25 25 26 28 29 30 32 33 33 33 33 35 38 39 33 28 26 21 17 15 17 15 12 11 11 11 11 12 14 17 22
37 36 36 35 34 34 33 32 30 30 29 28 28 28 28 28 26 26 27 28 28 30 31 32 33 33 33 33 36 36 38 34 32 28 24 18 15 17 14 13 11 11 12 15 16 19 21
43 40 39 37 36 36 36 36 33 33 32 32 30 31 30 31 30 29 28 28 29 30 31 33 33 34 34 34 33 34 35 38 34 33 31 24 20 16 15 14 14 13 13 15 19 19 20
41 44 44 38 37 38 39 39 38 36 36 36 35 33 33 34 33 32 31 31 31 30 30 32 34 35 36 36 36 33 33 32 36 36 32 30 25 21 16 18 15 14 16 16 17 18 19
49 40 44 47 47 40 42 42 41 41 40 39 40 39 36 37 36 35 34 32 34 34 32 34 35 35 37 37 36 36 35 34 32 35 32 28 29 27 22 18 18 16 18 19 19 14 14
48 46 48 50 50 43 47 43 42 43 44 44 44 43 40 40 39 39 39 35 34 37 36 35 35 38 39 40 39 36 36 35 34 34 35 33 27 28 24 23 20 14 17 21 14 15 13
48 51 48 52 51 48 47 46 46 46 48 47 47 46 44 43 41 40 40 38 39 40 41 39 40 41 41 40 44 44 40 39 37 36 35 34 32 28 22 24 22 19 17 19 19 14 13
52 56 56 53 59 55 59 49 46 46 50 49 48 48 48 46 44 44 42 41 42 43 43 43 42 46 42 45 47 50 43 42 41 39 40 38 35 30 25 23 22 20 21 21 20 17 15
43 44 57 60 57 64 59 54 48 48 51 50 48 49 51 51 47 45 45 43 42 46 48 44 49 47 46 51 51 47 46 43 38 40 39 41 40 37 28 26 23 22 21 21 20 20 17
46 45 49 54 55 58 56 56 48 52 52 51 52 52 53 58 57 53 53 54 54 55 57 55 48 49 52 57 54 53 50 45 40 40 37 38 40 42 37 28 24 24 22 23 24 24 24
43 43 45 47 51 53 56 53 53 56 55 57 59 61 60 58 52 53 55 54 54 53 50 49 50 55 58 53 53 56 55 49 49 46 35 36 36 40 39 42 28 24 28 25 24 23 26
41 39 37 37 46 49 57 60 59 57 58 63 60 55 58 59 59 59 56 55 53 51 51 51 54 53 48 51 54 53 50 48 48 43 40 37 36 36 37 42 37 26 27 29 27 25 27
42 41 41 39 38 43 48 47 47 57 60 58 57 58 57 54 52 52 51 51 51 49 49 46 45 46 48 50 50 50 49 47 47 41 37 35 37 37 40 42 37 33 29 29 32 31 29
39 41 41 40 42 45 50 47 48 48 50 52 53 53 53 52 47 47 46 44 45 45 44 48 52 50 49 49 48 49 49 49 48 46 43 43 41 41 40 40 38 35 33 31 32 35 36
Wind_Direction
4 4 8 11 11 19 20 17 14 5 4 2 1 5 6 6 3 2 2 3 3 5 5 3 358 360 359 0 354 349 343 330 300 279 248 219 218 216 215 215 210 211 211 216 219 213 208
4 13 19 27 30 33 31 25 16 7 7 7 2 6 7 7 7 6 4 5 5 7 8 8 3 1 3 4 359 359 355 347 337 319 256 218 209 214 213 213 211 211 212 212 220 220 215
12 16 26 31 33 32 29 23 17 10 9 6 5 7 8 7 7 9 9 7 7 9 11 12 8 4 7 7 6 3 4 5 359 351 320 217 210 209 214 211 211 210 213 213 215 215 220
10 15 25 31 26 24 22 17 17 16 9 4 6 7 7 8 8 9 11 11 9 10 13 14 13 11 11 11 10 7 14 14 4 1 355 253 212 206 212 212 212 212 212 214 213 217 222
350 8 17 22 19 16 10 9 13 14 8 4 2 3 5 8 8 9 11 13 12 12 13 15 17 17 13 13 15 12 22 16 12 7 2 321 228 212 207 211 213 214 213 215 216 217 217
315 348 0 357 6 6 1 1 6 8 7 5 6 4 5 6 7 8 10 13 13 13 14 15 20 23 19 14 15 20 13 4 4 7 4 350 269 225 213 209 215 217 218 217 217 218 219
285 309 324 333 336 347 350 351 356 1 6 7 11 11 12 12 13 12 11 15 14 13 14 16 19 25 24 21 18 13 11 5 3 0 5 358 337 235 227 217 213 217 220 220 220 220 220
268 272 289 301 312 321 329 338 342 347 358 5 10 13 15 16 16 15 14 17 16 16 15 15 19 23 26 25 21 16 13 11 6 9 17 8 357 265 224 224 224 220 217 220 220 221 222
260 261 266 276 289 300 312 323 329 337 342 353 360 5 10 13 14 16 16 17 18 18 20 15 19 20 23 26 26 22 17 14 10 11 14 11 5 351 229 225 225 226 226 222 219 221 223
256 257 255 261 271 283 295 308 317 326 332 339 346 354 2 9 12 15 16 17 13 15 22 17 18 19 19 23 27 26 24 17 14 9 7 12 17 18 357 251 239 230 227 227 226 222 223
257 254 253 256 264 272 283 295 304 317 325 330 336 343 351 2 7 12 13 16 13 12 19 16 16 16 18 17 21 24 25 25 18 13 5 359 4 9 347 321 257 245 244 229 226 226 225
258 255 258 258 261 270 276 285 296 307 317 325 329 333 340 349 358 3 6 7 11 14 20 16 15 14 16 16 16 18 21 23 22 21 9 359 353 349 347 328 281 252 256 238 223 226 224
261 260 261 260 263 266 273 281 289 298 309 318 325 329 332 339 346 351 358 0 4 10 14 15 13 13 12 14 13 14 16 16 18 17 17 14 350 330 328 319 309 276 243 242 233 224 226
258 262 261 262 262 265 270 277 283 293 300 309 318 323 328 331 336 343 350 353 357 1 5 8 13 10 13 11 12 12 9 11 11 11 8 7 13 360 328 313 309 298 262 247 243 226 222
251 258 258 262 262 264 268 272 280 285 292 300 309 316 320 324 329 334 341 347 350 351 356 358 1 9 9 8 10 8 10 7 3 6 2 4 5 4 1 336 314 295 283 260 251 245 233
248 253 259 261 262 263 267 269 275 280 286 292 300 307 312 317 320 322 329 334 339 343 346 349 352 354 2 5 4 6 1 5 8 359 0 355 352 349 347 346 340 318 294 277 271 258 247
250 253 258 258 258 261 264 268 272 276 281 285 293 299 304 308 313 314 320 324 328 332 337 340 343 346 348 353 358 360 0 356 355 2 4 350 344 335 340 333 327 319 308 292 276 272 265
250 249 256 256 258 259 263 265 267 273 275 280 285 292 297 301 306 309 314 319 320 323 328 330 335 337 340 341 348 350 352 354 354 347 349 356 351 329 324 320 321 315 304 294 288 280 267
246 247 247 254 257 261 263 263 267 269 273 278 281 287 293 296 300 303 306 311 313 315 319 323 326 330 333 334 335 340 341 344 345 345 339 338 341 349 317 316 310 310 307 304 294 288 281
249 251 254 254 250 253 260 263 265 268 271 274 279 283 286 288 292 297 300 306 307 307 308 314 318 319 324 324 326 332 331 335 336 336 338 333 331 332 335 322 311 304 295 297 299 303 289
254 246 250 254 262 256 255 260 267 269 271 274 277 281 284 288 289 293 296 298 299 301 303 307 309 310 315 317 316 321 323 324 328 331 330 330 326 319 318 320 319 301 287 291 305 297 289
257 254 254 258 260 250 255 256 259 268 269 271 275 278 279 281 285 287 292 297 295 295 299 301 302 306 307 310 311 315 315 317 320 322 320 325 321 311 316 304 309 316 296 293 301 290 286
266 266 259 252 254 256 254 255 259 262 268 271 274 277 280 282 284 286 290 291 295 293 292 299 300 299 301 302 305 309 306 311 311 315 313 317 318 311 309 299 293 295 298 299 289 280 273
265 266 263 257 255 259 261 252 253 265 269 270 273 276 279 280 283 288 288 288 291 292 294 294 297 295 297 301 302 304 305 304 300 305 306 309 312 309 306 302 292 296 290 292 289 286 279
261 260 261 260 259 259 256 253 256 264 266 269 274 274 275 277 283 287 285 287 291 296 295 293 293 289 290 297 298 297 300 299 294 298 295 297 301 303 305 299 289 293 295 288 280 278 277
266 267 262 264 259 259 250 253 258 258 264 265 266 271 277 281 282 284 287 288 288 290 290 291 287 289 289 288 291 293 297 299 298 300 297 289 290 296 299 300 299 292 286 283 281 276 270
271 266 267 274 268 262 260 256 260 261 265 269 274 276 278 278 281 283 285 285 287 287 290 290 288 286 286 287 289 289 290 289 295 296 302 296 291 292 292 288 293 295 280 278 277 271 269
272 271 267 264 271 276 277 272 272 274 275 275 277 278 278 278 280 285 285 287 288 289 286 283 286 287 285 284 284 285 285 285 287 290 295 296 291 294 288 281 287 285 282 271 270 271 270
267 267 265 261 259 264 267 265 265 266 271 275 274 276 280 283 285 286 283 288 287 280 280 283 284 286 287 288 288 283 280 280 283 284 287 287 287 289 286 285 283 279 274 270 270 270 271
Height
5823 5822 5820 5818 5817 5815 5814 5812 5810 5808 5805 5802 5798 5792 5786 5780 5775 5768 5762 5753 5743 5732 5720 5705 5693 5684 5677 5672 5668 5665 5662 5661 5660 5660 5660 5662 5666 5671 5677 5686 5695 5704 5712 5722 5730 5739 5748
5824 5822 5820 5818 5817 5816 5814 5812 5810 5808 5805 5801 5797 5792 5786 5780 5773 5767 5760 5752 5743 5733 5721 5707 5696 5686 5679 5674 5669 5666 5665 5663 5661 5661 5660 5662 5665 5669 5675 5682 5690 5699 5707 5716 5723 5733 5740
5824 5823 5821 5819 5818 5816 5814 5812 5810 5808 5805 5801 5796 5791 5785 5780 5773 5766 5759 5751 5744 5734 5722 5710 5699 5690 5682 5677 5671 5668 5666 5665 5664 5662 5662 5663 5665 5669 5674 5679 5686 5694 5703 5711 5719 5728 5733
5824 5823 5821 5820 5819 5817 5815 5813 5810 5807 5804 5801 5795 5790 5785 5779 5774 5766 5759 5751 5744 5735 5724 5713 5703 5693 5686 5679 5673 5669 5668 5667 5666 5665 5664 5665 5666 5668 5673 5678 5684 5690 5698 5705 5715 5722 5730
5824 5823 5821 5820 5818 5817 5815 5813 5810 5806 5803 5800 5795 5790 5784 5778 5773 5766 5759 5751 5744 5737 5728 5718 5708 5696 5690 5683 5677 5673 5671 5670 5669 5667 5666 5666 5667 5669 5672 5676 5682 5688 5696 5703 5710 5717 5725
5824 5822 5820 5820 5818 5816 5815 5812 5809 5806 5803 5799 5795 5790 5784 5778 5772 5766 5759 5752 5745 5738 5730 5723 5712 5704 5694 5689 5682 5678 5674 5672 5671 5670 5669 5668 5668 5669 5672 5675 5680 5686 5693 5699 5706 5713 5721
5821 5821 5819 5819 5818 5815 5813 5811 5809 5805 5802 5798 5794 5790 5785 5779 5772 5766 5761 5754 5749 5741 5733 5726 5717 5706 5698 5692 5686 5682 5678 5675 5673 5671 5670 5669 5668 5669 5672 5675 5679 5684 5690 5695 5701 5707 5715
5819 5819 5818 5816 5816 5814 5812 5809 5807 5804 5801 5798 5794 5790 5785 5779 5773 5767 5762 5755 5748 5742 5735 5727 5719 5711 5703 5696 5691 5686 5682 5679 5676 5673 5671 5671 5670 5669 5671 5674 5678 5682 5687 5692 5696 5701 5708
5816 5816 5815 5815 5812 5812 5810 5808 5806 5803 5800 5797 5794 5790 5785 5780 5774 5769 5763 5757 5751 5744 5737 5731 5722 5715 5709 5702 5696 5690 5687 5682 5679 5677 5674 5672 5672 5671 5672 5674 5676 5680 5684 5687 5692 5696 5701
5811 5812 5812 5811 5810 5809 5808 5806 5804 5802 5799 5796 5793 5789 5786 5782 5777 5770 5764 5758 5753 5746 5738 5733 5726 5720 5714 5707 5701 5695 5690 5687 5682 5679 5677 5675 5674 5673 5673 5674 5676 5678 5681 5684 5688 5692 5696
5807 5808 5807 5808 5807 5806 5805 5803 5801 5799 5797 5795 5791 5788 5784 5780 5777 5771 5766 5760 5754 5748 5740 5735 5728 5722 5715 5711 5705 5700 5695 5690 5686 5682 5681 5679 5676 5674 5674 5674 5673 5676 5677 5680 5683 5687 5691
5802 5803 5804 5804 5804 5804 5802 5800 5799 5797 5795 5793 5789 5786 5783 5780 5776 5772 5766 5761 5757 5752 5743 5738 5731 5725 5719 5713 5709 5703 5699 5694 5690 5686 5682 5681 5679 5676 5675 5674 5673 5673 5674 5675 5677 5681 5687
5798 5798 5800 5800 5801 5800 5799 5798 5796 5794 5792 5790 5788 5784 5781 5778 5775 5771 5767 5762 5758 5750 5746 5741 5735 5728 5722 5717 5711 5707 5702 5698 5693 5690 5686 5682 5680 5679 5677 5675 5674 5672 5671 5672 5675 5678 5685
5792 5793 5795 5795 5796 5795 5795 5794 5792 5791 5789 5787 5785 5782 5779 5777 5774 5769 5766 5763 5758 5753 5748 5743 5737 5731 5726 5721 5714 5709 5704 5700 5696 5692 5688 5685 5682 5679 5677 5676 5674 5672 5672 5672 5673 5675 5678
5785 5787 5788 5790 5790 5790 5790 5789 5788 5787 5785 5784 5782 5780 5777 5775 5772 5768 5765 5761 5757 5753 5749 5744 5739 5734 5729 5723 5717 5712 5707 5702 5698 5694 5691 5687 5683 5680 5677 5676 5675 5672 5672 5672 5671 5672 5674
5778 5781 5781 5783 5784 5784 5784 5784 5783 5782 5780 5779 5778 5777 5774 5772 5769 5767 5764 5760 5756 5752 5748 5744 5739 5734 5730 5725 5720 5713 5708 5704 5699 5695 5692 5689 5685 5682 5679 5676 5674 5673 5672 5671 5670 5670 5670
5771 5774 5775 5776 5777 5778 5778 5778 5777 5776 5775 5773 5773 5772 5771 5768 5766 5764 5761 5758 5754 5751 5747 5744 5739 5734 5729 5725 5720 5716 5711 5706 5699 5695 5692 5689 5686 5684 5680 5676 5674 5672 5671 5670 5668 5667 5666
5763 5766 5768 5769 5769 5770 5771 5771 5770 5770 5768 5767 5766 5766 5766 5763 5763 5760 5758 5754 5752 5748 5745 5741 5737 5733 5729 5724 5720 5715 5711 5706 5700 5695 5691 5688 5685 5682 5680 5676 5674 5671 5669 5667 5666 5666 5662
5754 5756 5758 5760 5761 5762 5763 5764 5763 5763 5762 5761 5760 5760 5760 5758 5757 5755 5753 5751 5747 5745 5742 5738 5734 5731 5727 5723 5719 5715 5711 5707 5701 5696 5690 5687 5682 5680 5678 5676 5673 5670 5668 5665 5662 5661 5660
5744 5746 5749 5751 5752 5753 5754 5755 5756 5755 5754 5754 5753 5752 5753 5751 5750 5749 5747 5746 5742 5739 5737 5734 5730 5726 5723 5720 5716 5713 5708 5706 5701 5696 5690 5685 5682 5678 5675 5672 5670 5669 5665 5662 5660 5658 5656
5733 5736 5739 5740 5743 5744 5745 5746 5746 5746 5746 5746 5745 5745 5745 5743 5743 5741 5740 5739 5737 5731 5732 5729 5726 5721 5718 5715 5711 5709 5706 5702 5699 5694 5689 5684 5680 5676 5673 5668 5666 5665 5662 5659 5657 5656 5653
5725 5727 5728 5730 5732 5733 5734 5735 5735 5736 5736 5736 5735 5735 5734 5733 5734 5733 5732 5732 5729 5726 5723 5723 5719 5715 5712 5708 5703 5701 5699 5696 5694 5691 5685 5682 5675 5671 5671 5665 5662 5661 5658 5656 5654 5652 5651
5715 5716 5717 5719 5720 5720 5722 5723 5724 5725 5725 5725 5725 5724 5723 5725 5725 5724 5724 5722 5720 5717 5715 5713 5711 5707 5704 5700 5696 5694 5692 5690 5686 5683 5678 5675 5671 5666 5665 5662 5659 5657 5654 5651 5649 5648 5648
5704 5705 5705 5705 5706 5707 5709 5710 5712 5713 5714 5714 5715 5714 5713 5712 5713 5714 5712 5710 5710 5706 5703 5704 5701 5698 5695 5690 5687 5684 5683 5681 5679 5676 5673 5667 5663 5661 5659 5656 5655 5652 5649 5647 5645 5643 5642
5692 5692 5692 5692 5692 5694 5696 5698 5699 5702 5703 5702 5702 5702 5700 5698 5701 5705 5700 5698 5698 5696 5691 5689 5691 5687 5683 5679 5674 5671 5672 5670 5670 5669 5666 5662 5657 5651 5650 5650 5649 5648 5643 5642 5640 5640 5638
5680 5681 5682 5682 5683 5683 5685 5686 5687 5689 5690 5689 5689 5688 5686 5685 5690 5688 5688 5687 5684 5683 5680 5678 5676 5673 5669 5666 5664 5659 5656 5657 5654 5653 5657 5654 5651 5646 5641 5636 5640 5641 5635 5634 5633 5634 5632
5671 5671 5672 5672 5673 5673 5675 5676 5676 5676 5676 5676 5677 5675 5674 5671 5676 5673 5675 5672 5672 5669 5666 5665 5661 5657 5657 5655 5652 5649 5647 5647 5643 5642 5644 5643 5641 5637 5634 5627 5629 5632 5629 5626 5626 5628 5624
5661 5660 5661 5660 5662 5663 5663 5662 5662 5663 5664 5664 5664 5661 5660 5659 5661 5663 5660 5658 5657 5656 5652 5650 5646 5644 5644 5641 5639 5638 5634 5634 5632 5634 5635 5632 5630 5629 5624 5621 5621 5622 5621 5620 5617 5615 5616
5649 5649 5649 5649 5650 5651 5651 5650 5650 5650 5650 5649 5650 5650 5647 5646 5651 5650 5650 5649 5643 5639 5639 5636 5633 5632 5630 5627 5626 5624 5624 5621 5622 5620 5622 5621 5620 5618 5617 5614 5613 5611 5610 5609 5608 5606 5605